Regional Weather Roundup
Issued by NWS

Home | Current Version | Previous Version | Text Only | Print | Product List | Glossary Off
Versions: 1 2 3 4 5 6 7 8 9 10 11 12 13 14 15 16 17 18 19 20 21 22 23 24 25 26 27 28 29 30 31 32 33 34 35 36 37 38 39 40 41 42 43 44 45 46 47 48 49 50

000
ASUS45 KBOU 212107
RWRCO

WEATHER ROUNDUP FOR COLORADO
NATIONAL WEATHER SERVICE DENVER/BOULDER CO
300 PM MDT SUN SEP 21 2014

NOTE: "FAIR" INDICATES FEW OR NO CLOUDS BELOW 12000 FEET WITH NO
SIGNIFICANT WEATHER AND/OR OBSTRUCTIONS TO VISIBILITY.

COZ001>005-013-030-031-212200-
...NORTHWEST COLORADO...

CITY           SKY/WX    TMP DP  RH WIND       PRES   REMARKS
CRAIG          LGT RAIN  62  56  80 NE15      30.32F
HAYDEN         CLOUDY    61  50  67 E7        30.37F
MEEKER         NOT AVBL
MOUNT WERNER   NOT AVBL
STEAMBOAT SPGS CLOUDY    54  52  92 CALM      30.42R
WALDEN         MOSUNNY   66  41  39 SW13      30.40S
$$

COZ006>008-011-212200-
...WEST CENTRAL VALLEYS...

CITY           SKY/WX    TMP DP  RH WIND       PRES   REMARKS
GRAND JUNCTION SUNNY     79  53  40 E8        30.14F
MONTROSE       MOSUNNY   79  49  34 VRB5      30.22F
EAGLE          PTSUNNY   66  48  52 CALM      30.36F
RIFLE          PTSUNNY   72  50  45 VRB6      30.24F
DELTA          RAIN      82  51  33 NE9       30.18F
NUCLA          SUNNY     82  39  21 S21       30.22F
$$

COZ017>023-064>068-212200-
...SOUTHWEST COLORADO...

CITY           SKY/WX    TMP DP  RH WIND       PRES   REMARKS
DURANGO        PTSUNNY   76  47  35 SE5       30.28F
CORTEZ         PTSUNNY   82  48  30 S13G22    30.22F
PAGOSA SPRINGS MOSUNNY   75  36  24 S10       30.35F
TELLURIDE      NOT AVBL
WOLF CREEK PAS PTSUNNY   54  41  62 S10G20    30.65F
$$

COZ009-010-012-014-032>034-037-058>063-212200-
...CENTRAL COLORADO...

CITY           SKY/WX    TMP DP  RH WIND       PRES   REMARKS
ASPEN          CLOUDY    63  42  46 SE6       30.39F
BUENA VISTA    MOSUNNY   65  46  50 CALM      30.42F
COPPER MTN     CLOUDY    54  45  71 W7        30.69S
BERTHOUD PASS  RAIN      36  34  93 NW13      30.74S VSB 1/4
COTTONWOOD PAS CLOUDY    61  48  63 SE7       30.55F
GUNNISON       MOSUNNY   66  46  48 NW8       30.41F
KREMMLING      RAIN      61  45  55 S10G21    30.44R
LEADVILLE      PTSUNNY   56  41  57 NW5       30.53F
MONARCH PASS   CLOUDY    50  43  76 S8        30.77F
SALIDA         MOSUNNY   67  53  59 E8        30.48F
SUNLIGHT       CLOUDY    50  46  87 CALM      30.59F
WILKERSON PASS NOT AVBL
$$

COZ069>075-212200-
...SAN LUIS VALLEY/SANGRE DE CRISTO MOUNTAINS...

CITY           SKY/WX    TMP DP  RH WIND       PRES   REMARKS
ALAMOSA        MOSUNNY   75  38  26 S8        30.34F
LA VETA PASS   DRZL/FOG  50  46  87 NE14      30.58S VSB 1/4
SAGUACHE       NOT AVBL
$$

COZ035-036-038>040-212200-
...NORTHERN COLORADO FRONT RANGE...

CITY           SKY/WX    TMP DP  RH WIND       PRES   REMARKS
DENVER INTL AP PTSUNNY   75  51  43 S7        30.27F
DMNS CITY PARK   N/A     70  49  47 NW8       30.27S
AURORA         PTSUNNY   76  52  42 S13       30.29F
FRONT RANGE AP NOT AVBL
ERIE MUNI ARPT NOT AVBL
BOULDER MUN AP PTSUNNY   68  46  45 CALM      30.30S
CENTENNIAL     PTSUNNY   71  52  50 S18G26    30.29F
BROOMFIELD     PTSUNNY   68  46  45 NW7       30.31F
FORT COLLINS   MOSUNNY   72  48  43 S3        30.28F
LONGMONT       MOSUNNY   75  47  37 NW6       30.30F
$$

COZ041-046-047-076>085-087-088-212200-
...PIKES PEAK/PALMER DIVIDE AND SOUTHERN FOOTHILLS...

CITY           SKY/WX    TMP DP  RH WIND       PRES   REMARKS
COLO. SPRINGS  MOSUNNY   70  45  40 S18G24    30.38F
A. F. ACADEMY  MOSUNNY   68  47  46 S17G25    30.38F
ELLICOTT       NOT AVBL
FALCON         MOSUNNY   69  44  40 S14G23    30.42S
FORT CARSON    MOSUNNY   69  49  48 S16       30.35F
LIMON          SUNNY     73  44  35 S20G25    30.34F
MONUMENT HILL  MOSUNNY   64  46  52 S20G25    30.38S
TRINIDAD       MOSUNNY   74  50  42 E16G23    30.32F
$$

COZ042>045-048>051-090-091-212200-
...NORTHEAST COLORADO...

CITY           SKY/WX    TMP DP  RH WIND       PRES   REMARKS
GREELEY ARPT   MOSUNNY   75  48  38 E8        30.27F
AKRON          PTSUNNY   73  41  31 SE16G24   30.31F
BURLINGTON     MOSUNNY   73  36  25 E9G20     30.32F
WRAY           MOSUNNY   75  37  24 SE7       30.31F
STERLING       PTSUNNY   77  45  31 SE14      30.28F
HOLYOKE        MOSUNNY   79  41  25 SE7       30.31F
FORT MORGAN    PTSUNNY   74  42  31 SE12G17   30.29F
$$

COZ086-089-092>099-212200-
...SOUTHEAST COLORADO...

CITY           SKY/WX    TMP DP  RH WIND       PRES   REMARKS
PUEBLO         MOSUNNY   74  49  41 E6        30.30F
LA JUNTA       SUNNY     79  44  28 SE14      30.27F
LAMAR          PTSUNNY   78  42  27 VRB7      30.26F
SPRINGFIELD      N/A     78  45  30 SE12G18   30.29F
$$


USA.gov is the U.S. government's official web portal to all federal, state and local government web resources and services.